TimeCST,TemperatureF,Dew PointF,Humidity,Sea Level PressureIn,VisibilityMPH,Wind Direction,Wind SpeedMPH,Gust SpeedMPH,PrecipitationIn,Events,Conditions,WindDirDegrees,DateUTC
12:53 AM,39.9,35.1,83,30.03,10.0,Calm,Calm,-,N/A,,Clear,0,2014-02-28 06:53:00
1:53 AM,42.1,37.9,85,30.01,10.0,SSE,4.6,-,N/A,,Clear,160,2014-02-28 07:53:00
2:53 AM,39.9,35.1,83,29.99,10.0,Calm,Calm,-,N/A,,Clear,0,2014-02-28 08:53:00
3:53 AM,39.0,37.9,96,30.00,10.0,Calm,Calm,-,N/A,,Clear,0,2014-02-28 09:53:00
4:53 AM,37.0,35.1,93,30.02,10.0,Calm,Calm,-,N/A,,Clear,0,2014-02-28 10:53:00
5:53 AM,36.0,35.1,97,30.03,10.0,North,3.5,-,N/A,,Clear,360,2014-02-28 11:53:00
6:53 AM,36.0,35.1,97,30.04,10.0,Calm,Calm,-,N/A,,Clear,0,2014-02-28 12:53:00
7:53 AM,46.0,37.0,71,30.03,10.0,ESE,5.8,-,N/A,,Clear,110,2014-02-28 13:53:00
8:53 AM,51.1,37.9,61,30.05,10.0,SE,8.1,-,N/A,,Clear,140,2014-02-28 14:53:00
9:53 AM,55.9,39.0,53,30.06,10.0,South,5.8,-,N/A,,Clear,170,2014-02-28 15:53:00
10:53 AM,57.9,43.0,58,30.06,10.0,Variable,5.8,17.3,N/A,,Mostly Cloudy,0,2014-02-28 16:53:00
11:53 AM,60.1,46.9,62,30.03,10.0,South,11.5,-,N/A,,Mostly Cloudy,190,2014-02-28 17:53:00
12:38 PM,59.0,46.9,64,30.01,10.0,SSE,8.1,20.7,N/A,,Overcast,160,2014-02-28 18:38:00
12:53 PM,59.0,48.0,67,30.01,10.0,SSE,10.4,18.4,N/A,,Overcast,160,2014-02-28 18:53:00
1:53 PM,60.1,48.9,67,29.99,10.0,SSE,9.2,-,N/A,,Overcast,160,2014-02-28 19:53:00
2:53 PM,60.1,50.0,69,29.95,10.0,South,15.0,25.3,N/A,,Overcast,170,2014-02-28 20:53:00
3:41 PM,60.1,51.1,72,29.94,10.0,South,16.1,24.2,N/A,,Overcast,170,2014-02-28 21:41:00
3:53 PM,60.1,51.1,72,29.94,10.0,South,11.5,23.0,N/A,,Overcast,170,2014-02-28 21:53:00
4:53 PM,61.0,51.1,70,29.94,10.0,SSE,9.2,21.9,N/A,,Overcast,150,2014-02-28 22:53:00
5:03 PM,61.0,51.1,70,29.94,10.0,SSE,10.4,-,N/A,,Overcast,150,2014-02-28 23:03:00
5:53 PM,60.1,52.0,75,29.95,10.0,SE,6.9,-,N/A,,Overcast,140,2014-02-28 23:53:00
6:53 PM,60.1,52.0,75,29.96,10.0,SE,4.6,-,N/A,,Overcast,140,2014-03-01 00:53:00
7:53 PM,60.1,53.1,78,29.96,10.0,SSE,8.1,20.7,N/A,,Overcast,150,2014-03-01 01:53:00
8:53 PM,60.1,53.1,78,29.98,10.0,SSE,11.5,18.4,N/A,,Overcast,160,2014-03-01 02:53:00
9:53 PM,60.1,53.1,78,30.00,10.0,SSE,8.1,-,N/A,,Overcast,160,2014-03-01 03:53:00
10:53 PM,61.0,54.0,78,30.01,10.0,SSE,6.9,-,N/A,,Overcast,160,2014-03-01 04:53:00
11:53 PM,60.1,54.0,80,30.01,10.0,South,6.9,-,N/A,,Partly Cloudy,170,2014-03-01 05:53:00